Weather History for Joliet, IL

Change the Weather History Date:

Sunday, September 15, 2013

  Actual Average (KLOT) Record (KLOT)
Temperature  
Mean Temperature 56 °F 66 °F  
Max Temperature 64 °F 76 °F 89 °F (1994)
Min Temperature 48 °F 55 °F 38 °F (2007)
Degree Days  
Heating Degree Days 9 2  
Month to date heating degree days 20  
Since 1 July heating degree days 28  
Cooling Degree Days 0 3  
Month to date cooling degree days 65  
Year to date cooling degree days 818  
Growing Degree Days 6 (Base 50)    
Moisture  
Dew Point 51 °F    
Average Humidity 78    
Maximum Humidity 97    
Minimum Humidity 60    
Precipitation  
Precipitation 0.36 in 0.10 in 0.84 in (2004)
Month to date precipitation 1.69  
Year to date precipitation 29.51  
Sea Level Pressure  
Sea Level Pressure 30.06 in    
Wind  
Wind Speed 2 mph (SW)    
Max Wind Speed 7 mph    
Max Gust Speed -    
Visibility 9 miles    
Events Rain    
T = Trace of Precipitation, MM = Missing Value Source: NWS Daily Summary

Daily Weather History Graph

Daily Weather History Graph

Search for Another Location

Airport:

Trip Planner

Search our weather history database for the weather conditions in past years. The results will help you decide how hot, cold, wet, or windy it might be!

Date:

Astronomy

Sep. 15, 2013 Rise Set
Actual Time 6:33 AM CDT 7:01 PM CDT
Civil Twilight 6:05 AM CDT 7:29 PM CDT
Nautical Twilight 5:32 AM CDT 8:02 PM CDT
Astronomical Twilight 4:58 AM CDT 8:35 PM CDT
Moon 4:31 PM CDT (9/15) 2:08 AM CDT (9/15)
Length of Visible Light 13h 23m
Length of Day
12h 28m
Waxing Gibbous, 82% of the Moon is Illuminated
Sep 15
Waxing Gibbous
Sep 19
Full
Sep 26
Last Quarter
Oct 4
New
Oct 11
First Quarter

Hourly Weather History & Observations

Time (CDT) Temp. Dew Point Humidity Pressure Visibility Wind Dir Wind Speed Gust Speed Precip Events Conditions
12:15 AM 49.3 °F 41.4 °F 74% 30.06 in 10.0 mi Calm Calm - N/A   Clear
12:35 AM 48.2 °F 41.7 °F 78% 30.05 in 10.0 mi Calm Calm - N/A   Clear
12:55 AM 48.9 °F 43.0 °F 80% 30.05 in 10.0 mi Calm Calm - N/A   Clear
1:15 AM 53.4 °F 42.8 °F 67% 30.04 in 10.0 mi Calm Calm - N/A   Clear
1:35 AM 54.5 °F 43.3 °F 66% 30.04 in 10.0 mi Calm Calm - N/A   Clear
1:55 AM 55.4 °F 43.2 °F 63% 30.04 in 10.0 mi Calm Calm - N/A   Clear
2:15 AM 55.0 °F 43.5 °F 65% 30.04 in 10.0 mi Calm Calm - N/A   Clear
2:35 AM 55.6 °F 43.9 °F 65% 30.04 in 10.0 mi Calm Calm - N/A   Clear
2:55 AM 56.8 °F 44.1 °F 62% 30.04 in 10.0 mi Calm Calm - N/A   Clear
3:15 AM 56.3 °F 45.0 °F 66% 30.04 in 10.0 mi Calm Calm - N/A   Clear
3:35 AM 56.5 °F 45.0 °F 65% 30.06 in 10.0 mi Calm Calm - N/A   Clear
3:55 AM 57.2 °F 44.6 °F 63% 30.06 in 10.0 mi Calm Calm - N/A   Clear
4:15 AM 55.6 °F 45.5 °F 69% 30.07 in 10.0 mi Calm Calm - N/A   Clear
4:35 AM 55.0 °F 46.6 °F 73% 30.07 in 10.0 mi Calm Calm - N/A   Scattered Clouds
4:55 AM 54.5 °F 47.3 °F 77% 30.06 in 10.0 mi Calm Calm - N/A   Scattered Clouds
5:15 AM 55.0 °F 46.8 °F 74% 30.06 in 10.0 mi Calm Calm - N/A   Scattered Clouds
5:35 AM 55.9 °F 46.4 °F 70% 30.06 in 10.0 mi Calm Calm - N/A   Scattered Clouds
5:55 AM 56.1 °F 46.4 °F 70% 30.06 in 10.0 mi Calm Calm - N/A   Scattered Clouds
6:15 AM 55.9 °F 46.4 °F 70% 30.06 in 10.0 mi Calm Calm - N/A   Scattered Clouds
6:35 AM 55.8 °F 45.9 °F 69% 30.07 in 10.0 mi Calm Calm - N/A   Scattered Clouds
6:55 AM 55.9 °F 46.4 °F 70% 30.07 in 10.0 mi SSE 3.5 mph - N/A   Clear
7:15 AM 56.3 °F 46.2 °F 69% 30.06 in 10.0 mi SE 3.5 mph - N/A   Scattered Clouds
7:35 AM 56.3 °F 46.6 °F 70% 30.06 in 10.0 mi SSE 4.6 mph - N/A   Scattered Clouds
7:55 AM 55.8 °F 47.3 °F 73% 30.05 in 10.0 mi SSE 4.6 mph - N/A Rain Light Rain
8:15 AM 55.6 °F 47.5 °F 74% 30.04 in 10.0 mi SSE 4.6 mph - N/A   Overcast
8:35 AM 56.3 °F 47.7 °F 73% 30.04 in 10.0 mi SSE 3.5 mph - N/A   Overcast
8:55 AM 57.6 °F 48.2 °F 71% 30.05 in 10.0 mi Calm Calm - N/A   Overcast
9:15 AM 58.8 °F 48.2 °F 68% 30.05 in 10.0 mi South 4.6 mph - N/A   Overcast
9:35 AM 60.3 °F 48.0 °F 64% 30.04 in 10.0 mi South 6.9 mph - N/A   Mostly Cloudy
9:55 AM 62.1 °F 48.6 °F 61% 30.04 in 10.0 mi South 6.9 mph - N/A   Mostly Cloudy
10:15 AM 61.7 °F 48.4 °F 62% 30.04 in 10.0 mi South 3.5 mph - N/A   Mostly Cloudy
10:35 AM 62.1 °F 48.2 °F 60% 30.03 in 10.0 mi South 5.8 mph - N/A   Overcast
10:55 AM 62.2 °F 49.1 °F 62% 30.04 in 10.0 mi SSW 4.6 mph - N/A Rain Light Rain
11:15 AM 62.1 °F 50.9 °F 67% 30.04 in 10.0 mi SSW 4.6 mph - N/A Rain Light Rain
11:35 AM 62.1 °F 52.3 °F 70% 30.05 in 10.0 mi Calm Calm - N/A Rain Light Rain
11:55 AM 61.7 °F 53.6 °F 75% 30.02 in 10.0 mi South 5.8 mph - N/A Rain Light Rain
12:15 PM 62.1 °F 54.5 °F 76% 30.02 in 10.0 mi SSW 4.6 mph - N/A Rain Light Rain
12:35 PM 62.1 °F 55.2 °F 78% 30.02 in 10.0 mi SW 3.5 mph - 0.01 in Rain Light Rain
12:55 PM 62.2 °F 55.2 °F 78% 30.02 in 10.0 mi SSW 5.8 mph - 0.01 in   Overcast
1:15 PM 62.2 °F 55.0 °F 77% 30.01 in 10.0 mi SSW 3.5 mph - N/A   Overcast
1:35 PM 62.8 °F 54.9 °F 75% 30.00 in 10.0 mi South 5.8 mph - N/A   Overcast
1:55 PM 62.8 °F 54.9 °F 75% 29.99 in 10.0 mi SSW 3.5 mph - N/A   Overcast
2:15 PM 63.3 °F 54.9 °F 74% 29.98 in 10.0 mi SSW 3.5 mph - N/A   Overcast
2:35 PM 63.9 °F 54.7 °F 72% 30.00 in 10.0 mi SW 3.5 mph - N/A   Overcast
2:55 PM 64.4 °F 54.0 °F 69% 30.02 in 10.0 mi WSW 3.5 mph - N/A   Overcast
3:15 PM 64.4 °F 53.8 °F 68% 30.03 in 10.0 mi Calm Calm - N/A Rain Light Rain
3:35 PM 63.0 °F 55.2 °F 76% 30.02 in 10.0 mi Calm Calm - N/A Rain Rain
3:55 PM 61.9 °F 56.1 °F 81% 30.04 in 2.5 mi West 3.5 mph - 0.08 in Rain Heavy Rain
4:15 PM 59.9 °F 57.2 °F 91% 30.03 in 2.5 mi Calm Calm - 0.10 in Rain Rain
4:35 PM 59.5 °F 57.4 °F 93% 30.03 in 2.0 mi Calm Calm - 0.17 in Rain Heavy Rain
4:55 PM 59.2 °F 58.1 °F 96% 30.03 in 3.0 mi Calm Calm - 0.23 in Rain Rain
5:15 PM 59.2 °F 58.1 °F 96% 30.04 in 4.0 mi Calm Calm - 0.02 in Rain Light Rain
5:35 PM 59.0 °F 57.9 °F 96% 30.04 in 7.0 mi Calm Calm - 0.03 in   Drizzle
5:55 PM 59.0 °F 58.1 °F 97% 30.05 in 3.0 mi Calm Calm - 0.03 in   Heavy Drizzle
6:15 PM 59.0 °F 57.7 °F 96% 30.06 in 2.5 mi Calm Calm - 0.01 in   Drizzle
6:35 PM 59.0 °F 57.7 °F 96% 30.07 in 3.0 mi NNW 4.6 mph - 0.01 in   Drizzle
6:55 PM 59.0 °F 57.6 °F 95% 30.07 in 7.0 mi North 3.5 mph - 0.01 in   Overcast
7:15 PM 58.6 °F 56.7 °F 93% 30.08 in 10.0 mi North 4.6 mph - N/A   Overcast
7:35 PM 58.6 °F 56.7 °F 93% 30.09 in 10.0 mi North 4.6 mph - N/A   Overcast
7:55 PM 58.6 °F 56.8 °F 94% 30.09 in 7.0 mi NNW 4.6 mph - N/A   Overcast
8:15 PM 58.3 °F 55.9 °F 92% 30.11 in 10.0 mi North 6.9 mph - N/A   Overcast
8:35 PM 58.1 °F 55.8 °F 92% 30.11 in 10.0 mi North 5.8 mph - N/A   Overcast
8:55 PM 57.9 °F 55.4 °F 91% 30.12 in 10.0 mi North 6.9 mph - N/A   Overcast
9:15 PM 57.6 °F 55.0 °F 91% 30.13 in 10.0 mi North 5.8 mph - N/A   Overcast
9:35 PM 57.2 °F 54.9 °F 92% 30.13 in 10.0 mi North 5.8 mph - N/A   Overcast
9:55 PM 56.5 °F 54.5 °F 93% 30.14 in 10.0 mi North 5.8 mph - N/A   Mostly Cloudy
10:15 PM 56.5 °F 54.7 °F 94% 30.14 in 7.0 mi North 4.6 mph - N/A   Overcast
10:35 PM 56.8 °F 55.0 °F 94% 30.15 in 7.0 mi North 3.5 mph - N/A   Overcast
10:55 PM 57.2 °F 55.4 °F 94% 30.16 in 7.0 mi North 4.6 mph - N/A   Overcast
11:15 PM 57.0 °F 55.0 °F 93% 30.16 in 7.0 mi North 5.8 mph - N/A   Mostly Cloudy
11:35 PM 57.2 °F 55.4 °F 94% 30.16 in 5.0 mi North 4.6 mph - N/A   Mostly Cloudy
11:55 PM 57.6 °F 55.8 °F 94% 30.16 in 5.0 mi North 5.8 mph - N/A   Overcast